Retour au catalogue

STARLINK-32571

ActifCommunicationsVLEO
NORAD 62055·PAYLOAD·🇺🇸 United States

Lancé Nov 21, 2024 depuis Cape Canaveral Space Force Station

Loading…

Prochains Passages (prochaines 24 heures)

TLE

FraisSource: CelesTrak SupGP

Époque: Sep 15, 2026, 03:24 UTC

1 62055C 24216Z   26258.14215278 -.00027401  00000+0 -99252-3 0  2589
2 62055  42.9996 265.8647 0000971 274.1327 172.2326 15.27590292    16

Suivez STARLINK-32571 en temps réel avec AllMySat

Download on the App Store